Probability
0 0 0 0 0 0 0 0 0 0 0 0 0 0 0 0 0 0 0 0 0 0 3 0 0 0 0 0 0 0 0 0 0 0 0 0 0 0 0 0 0 0 0
0 0 0 0 0 0 0 0 0 0 0 0 0 0 0 0 0 0 0 0 0 0 0 0 0 0 0 0 0 0 0 0 0 0 0 0 0 0 0 0 0 0 0
0 0 0 0 0 0 0 0 0 0 0 0 0 0 0 0 0 0 0 0 0 0 0 0 0 0 0 0 0 0 0 0 0 0 0 0 0 0 0 0 0 0 0
0 0 0 0 0 0 0 0 0 0 0 0 0 0 0 0 0 0 0 0 0 0 0 0 0 0 0 0 0 0 0 0 0 0 0 0 0 0 0 0 0 0 0
0 0 0 0 0 0 0 0 0 0 0 0 0 0 0 0 0 0 0 0 0 0 0 0 0 0 0 0 0 0 0 0 0 0 0 0 0 0 0 0 0 0 0
0 0 0 0 0 0 0 0 0 0 0 0 0 0 0 0 0 0 0 0 0 0 0 0 0 0 0 0 0 0 0 0 0 0 0 0 0 0 0 0 0 0 0
0 0 0 0 0 0 0 0 0 0 0 0 0 0 0 0 0 0 0 0 0 0 0 0 0 0 0 0 0 0 0 0 0 0 0 0 0 0 0 0 0 0 0
0 0 0 0 0 0 0 0 0 0 0 0 0 0 0 0 0 0 0 0 0 0 0 0 0 0 0 0 0 0 0 0 0 0 0 0 0 0 0 0 0 0 0
0 0 0 0 0 0 0 0 0 0 0 0 0 0 0 0 0 0 0 0 0 0 0 0 0 0 0 0 0 0 0 0 0 0 0 0 0 0 0 0 0 0 0
0 0 0 0 0 0 0 0 0 0 0 0 0 0 0 0 0 0 0 0 0 0 0 0 0 0 0 0 0 0 0 0 0 0 0 0 0 0 0 0 0 0 0
0 0 0 0 0 0 0 0 0 0 0 0 0 0 0 0 0 0 0 0 0 0 0 0 0 0 0 0 0 0 0 0 0 0 0 0 0 0 0 0 0 0 0
0 0 0 0 0 0 0 0 0 0 0 0 0 0 0 0 0 0 0 0 0 0 0 0 0 0 0 0 0 0 0 0 0 0 0 0 0 0 0 0 0 0 0
0 0 0 0 0 0 0 0 0 0 0 0 0 0 0 0 0 0 0 0 0 0 0 0 0 0 0 0 0 0 0 0 0 0 0 0 0 0 0 0 0 0 0
0 0 0 0 0 0 0 0 0 0 0 0 0 0 0 0 0 0 0 0 0 0 0 0 0 0 0 0 0 0 0 0 0 0 0 0 0 0 0 0 0 0 0
0 0 0 0 0 0 0 0 0 0 0 0 0 0 0 0 0 0 0 0 0 0 0 0 0 0 0 0 0 0 0 0 0 0 0 0 0 0 0 0 0 0 0
0 0 0 0 0 0 0 0 0 0 0 0 0 0 0 0 0 0 0 0 0 0 0 0 0 0 0 0 0 0 0 0 0 0 0 0 0 0 0 0 0 0 0
0 0 0 0 0 0 0 0 0 0 0 0 0 0 0 0 0 0 0 0 0 0 0 0 0 0 0 0 0 0 0 0 0 0 0 0 0 0 0 0 0 0 0
0 0 0 0 0 0 0 0 0 0 0 0 0 0 0 0 0 0 0 0 0 0 0 0 0 0 0 0 0 0 0 0 0 0 0 0 0 0 0 0 0 0 0
0 0 0 0 0 0 0 0 0 0 0 0 0 0 0 0 0 0 0 0 0 0 0 0 0 0 0 0 0 0 0 0 0 0 0 0 0 0 0 0 0 0 0
0 0 0 0 0 0 0 0 0 0 0 0 0 0 0 0 0 0 0 0 0 0 0 0 0 0 0 0 0 0 0 0 0 0 0 0 0 0 0 0 0 0 0
0 0 0 0 0 0 0 0 0 0 0 0 0 0 0 0 0 0 0 0 0 0 0 0 0 0 0 0 0 0 0 0 0 0 0 0 0 0 0 0 0 0 0
0 0 0 0 0 0 0 0 0 0 0 0 0 0 0 0 0 0 0 0 0 0 0 0 0 0 0 0 0 0 0 0 0 0 0 0 0 0 0 0 0 0 0
0 0 0 0 0 0 0 0 0 0 0 0 0 0 0 0 0 0 0 0 0 0 0 0 0 0 0 0 0 0 0 0 0 0 0 0 0 0 0 0 0 0 0
0 0 0 0 0 0 0 0 0 0 0 0 0 0 0 0 0 0 0 0 0 0 0 0 0 0 0 0 0 0 0 0 0 0 0 0 0 0 0 0 0 0 0
0 0 0 0 0 0 0 0 0 0 0 0 0 0 0 0 0 0 0 0 0 0 0 0 0 0 0 0 0 0 0 0 0 0 0 0 0 0 0 0 0 0 0
0 0 0 0 0 0 0 0 0 0 0 0 0 0 0 0 0 0 0 0 0 0 0 0 0 0 0 0 0 0 0 0 0 0 0 0 0 0 0 0 0 0 0
Height
5805 5807 5809 5811 5812 5814 5815 5817 5818 5819 5820 5820 5821 5821 5822 5823 5823 5824 5824 5824 5824 5824 5824 5824 5824 5824 5824 5823 5823 5822 5821 5821 5820 5819 5818 5816 5815 5814 5812 5811 5809 5807 5805
5796 5798 5800 5802 5804 5805 5807 5808 5809 5811 5812 5813 5814 5814 5815 5816 5816 5817 5817 5817 5817 5817 5817 5817 5817 5817 5817 5817 5816 5815 5814 5814 5813 5812 5811 5809 5808 5807 5806 5804 5802 5800 5799
5786 5789 5791 5793 5795 5796 5798 5799 5800 5802 5803 5805 5806 5806 5807 5808 5809 5809 5810 5810 5810 5810 5810 5810 5810 5810 5810 5809 5809 5808 5807 5806 5806 5805 5803 5802 5801 5800 5798 5797 5795 5793 5792
5776 5779 5781 5783 5785 5787 5788 5790 5791 5793 5794 5796 5797 5798 5799 5799 5800 5801 5801 5802 5802 5802 5802 5803 5803 5802 5802 5801 5801 5800 5799 5799 5798 5797 5796 5795 5793 5792 5791 5789 5788 5786 5785
5766 5769 5771 5773 5775 5777 5778 5780 5781 5783 5785 5786 5787 5789 5790 5790 5791 5792 5793 5793 5794 5794 5794 5794 5794 5794 5794 5793 5792 5792 5791 5790 5789 5788 5787 5786 5785 5784 5783 5781 5780 5778 5777
5756 5759 5761 5764 5765 5767 5769 5770 5772 5774 5775 5777 5778 5779 5780 5781 5782 5783 5783 5784 5785 5785 5785 5785 5785 5785 5785 5784 5784 5783 5782 5781 5780 5780 5779 5778 5777 5776 5775 5773 5772 5770 5769
5746 5749 5751 5753 5755 5757 5759 5761 5762 5764 5765 5767 5768 5769 5771 5772 5773 5773 5774 5775 5775 5776 5776 5776 5776 5776 5775 5775 5774 5774 5773 5772 5771 5770 5770 5769 5768 5767 5766 5765 5763 5762 5760
5736 5739 5741 5743 5745 5747 5749 5750 5752 5753 5755 5756 5758 5759 5761 5763 5763 5763 5764 5765 5765 5765 5766 5766 5765 5765 5765 5764 5764 5763 5763 5762 5761 5761 5760 5759 5758 5757 5756 5755 5754 5752 5751
5726 5729 5731 5733 5735 5737 5739 5740 5742 5743 5745 5746 5747 5748 5750 5752 5753 5753 5754 5755 5755 5755 5755 5755 5755 5754 5754 5754 5753 5753 5752 5752 5751 5750 5750 5749 5748 5747 5746 5745 5744 5743 5741
5716 5719 5721 5723 5725 5727 5728 5729 5731 5732 5733 5735 5736 5737 5739 5740 5741 5743 5743 5743 5744 5744 5744 5744 5743 5743 5743 5742 5742 5742 5741 5741 5740 5739 5738 5737 5737 5736 5735 5734 5733 5732 5731
5707 5708 5710 5712 5714 5715 5717 5718 5719 5720 5721 5723 5725 5726 5727 5729 5729 5730 5732 5733 5733 5733 5732 5732 5732 5732 5731 5731 5730 5730 5730 5729 5728 5727 5726 5726 5725 5724 5723 5722 5721 5721 5719
5697 5699 5700 5702 5703 5704 5706 5707 5708 5709 5709 5711 5713 5714 5716 5717 5718 5718 5720 5721 5722 5722 5721 5720 5720 5720 5720 5719 5718 5718 5717 5717 5716 5715 5714 5713 5713 5712 5711 5710 5709 5708 5707
5688 5689 5690 5691 5693 5694 5695 5696 5696 5697 5698 5699 5701 5703 5704 5705 5706 5707 5708 5709 5709 5710 5709 5708 5708 5708 5707 5706 5706 5705 5704 5703 5703 5702 5701 5700 5700 5699 5698 5697 5696 5695 5694
5679 5680 5680 5681 5682 5683 5684 5685 5685 5686 5687 5688 5689 5691 5692 5693 5695 5695 5696 5696 5697 5698 5698 5697 5696 5695 5694 5693 5693 5692 5691 5690 5689 5688 5687 5687 5686 5685 5684 5683 5682 5681 5680
5669 5670 5671 5671 5672 5673 5674 5675 5675 5676 5677 5678 5679 5679 5680 5682 5682 5683 5683 5684 5684 5685 5686 5685 5684 5683 5681 5680 5680 5678 5677 5676 5675 5674 5673 5672 5671 5670 5670 5669 5668 5667 5666
5661 5662 5662 5662 5663 5663 5664 5665 5666 5666 5667 5668 5669 5670 5670 5670 5671 5671 5671 5671 5671 5671 5673 5673 5671 5669 5668 5667 5666 5664 5663 5661 5660 5659 5658 5657 5656 5655 5655 5654 5653 5652 5650
5653 5654 5654 5654 5655 5655 5656 5656 5657 5658 5658 5659 5660 5660 5660 5659 5659 5659 5659 5659 5659 5659 5659 5660 5658 5656 5654 5653 5652 5650 5649 5647 5646 5644 5643 5642 5641 5640 5640 5639 5638 5637 5635
5646 5646 5647 5647 5647 5647 5648 5648 5649 5650 5650 5650 5650 5650 5650 5649 5649 5648 5648 5648 5647 5646 5646 5647 5645 5643 5641 5640 5638 5636 5634 5633 5631 5629 5627 5626 5625 5624 5624 5623 5622 5621 5620
5638 5639 5639 5640 5640 5640 5640 5641 5641 5642 5642 5642 5641 5641 5640 5639 5639 5638 5637 5636 5636 5634 5633 5633 5632 5630 5628 5626 5624 5622 5620 5618 5616 5614 5612 5611 5610 5608 5608 5607 5606 5605 5604
5632 5632 5633 5633 5633 5632 5633 5633 5633 5634 5633 5633 5632 5632 5631 5630 5629 5628 5627 5626 5624 5623 5621 5620 5619 5617 5615 5612 5609 5608 5606 5604 5602 5599 5597 5596 5594 5593 5592 5590 5590 5589 5588
5626 5626 5626 5626 5626 5626 5626 5625 5625 5625 5625 5624 5623 5622 5621 5620 5618 5617 5616 5615 5613 5611 5609 5607 5605 5604 5601 5598 5596 5594 5592 5590 5587 5585 5583 5581 5579 5578 5576 5575 5573 5573 5572
5620 5620 5620 5619 5619 5619 5618 5618 5617 5616 5615 5615 5614 5612 5611 5609 5608 5607 5605 5603 5601 5599 5597 5595 5593 5590 5587 5584 5582 5579 5577 5575 5574 5572 5569 5567 5564 5563 5561 5560 5558 5557 5556
5614 5614 5613 5613 5612 5612 5611 5610 5609 5608 5607 5605 5604 5603 5601 5599 5598 5596 5594 5592 5590 5587 5585 5582 5579 5576 5573 5570 5567 5565 5562 5560 5558 5557 5554 5553 5550 5548 5546 5544 5543 5542 5541
5608 5608 5608 5607 5606 5605 5604 5603 5601 5600 5598 5596 5595 5593 5591 5590 5588 5586 5584 5581 5578 5575 5572 5569 5566 5563 5559 5556 5553 5550 5548 5546 5543 5541 5538 5538 5536 5534 5531 5529 5527 5526 5525
5603 5603 5602 5601 5600 5598 5597 5595 5594 5592 5590 5588 5586 5584 5582 5580 5578 5575 5573 5570 5567 5563 5560 5556 5552 5549 5545 5541 5538 5536 5533 5531 5530 5527 5524 5522 5521 5520 5518 5515 5513 5511 5510
5598 5597 5596 5594 5593 5591 5589 5588 5586 5584 5582 5580 5577 5575 5572 5570 5567 5564 5561 5558 5555 5551 5547 5543 5539 5535 5531 5528 5524 5521 5519 5516 5514 5513 5510 5509 5507 5505 5505 5503 5500 5497 5496
Wind_Speed
40 39 39 39 39 38 38 37 37 36 35 34 34 35 34 33 33 33 32 32 31 31 31 31 31 31 31 31 31 32 32 32 32 33 33 33 32 32 32 31 31 31 31
40 40 40 40 40 40 40 40 40 38 38 37 37 37 36 35 35 35 34 34 34 33 33 33 33 33 33 33 33 33 33 33 34 34 34 34 34 33 33 32 32 31 31
42 42 41 41 41 42 42 42 41 40 40 39 39 39 39 38 37 37 36 36 36 36 35 34 34 34 34 35 34 35 35 36 35 35 35 35 35 35 34 33 34 33 32
43 43 43 42 42 43 43 43 43 42 41 41 41 41 42 40 39 39 39 38 38 37 37 37 36 36 36 36 37 37 37 37 37 37 37 36 36 35 35 34 34 34 34
44 44 43 43 42 43 43 44 44 44 43 42 42 43 43 42 41 41 40 40 39 39 39 39 39 38 38 38 38 38 38 38 38 38 37 37 36 36 36 35 36 36 35
44 43 43 43 43 43 44 45 44 44 44 43 44 44 44 44 44 43 42 42 42 41 41 41 41 40 40 40 40 39 39 39 38 38 38 38 38 38 37 37 37 36 36
45 44 44 43 44 44 44 45 45 45 45 44 45 45 45 45 45 44 44 43 43 43 43 43 43 42 42 42 41 41 41 41 40 39 39 39 39 39 38 38 37 37 37
46 46 46 46 46 46 47 47 47 47 47 47 47 47 48 46 46 46 46 45 44 44 44 44 44 45 45 44 44 44 43 42 42 41 41 41 41 41 40 39 39 38 39
45 45 46 46 46 47 47 48 49 49 48 48 48 47 48 48 48 48 48 47 47 46 46 46 46 47 47 46 46 45 45 45 44 44 43 43 42 42 41 41 41 40 40
45 45 46 46 46 47 48 48 49 50 50 50 50 49 48 49 50 50 50 49 49 49 49 49 49 49 48 48 47 47 47 47 47 46 46 45 44 44 43 42 43 43 42
43 44 45 46 47 48 48 48 49 49 51 50 50 49 49 50 50 50 50 50 50 50 50 49 49 49 49 49 48 49 48 48 47 47 47 47 46 46 45 44 44 43 43
42 43 44 45 45 46 46 46 47 48 49 50 50 49 48 49 49 49 49 49 49 49 49 49 50 50 50 50 50 50 50 49 48 48 48 48 48 47 46 45 45 45 45
41 42 43 44 45 45 45 46 47 46 47 49 49 48 48 49 49 49 49 48 49 48 48 48 49 50 50 51 51 51 51 50 51 51 50 50 49 48 48 47 47 47 46
40 41 41 42 43 43 43 44 44 44 45 46 46 46 47 48 49 49 49 48 48 48 48 48 49 50 51 51 50 51 51 52 52 52 52 51 50 49 50 49 49 48 48
38 39 39 40 40 40 41 41 41 41 42 43 44 45 45 46 46 46 47 48 48 48 48 49 49 50 51 51 51 52 53 53 54 54 53 52 51 51 50 50 50 49 50
35 36 36 37 37 38 38 39 38 38 39 40 41 42 42 43 44 45 47 48 48 48 48 48 49 50 51 52 53 53 53 53 53 54 54 53 52 52 52 51 51 51 50
32 33 33 34 35 36 36 35 34 34 35 37 38 39 40 42 43 45 46 47 47 48 47 47 48 49 50 51 52 52 52 53 54 54 54 53 53 53 52 52 52 52 52
29 30 31 31 32 32 32 33 33 34 35 36 37 37 38 40 41 42 44 45 46 47 47 47 48 49 49 50 51 50 51 52 53 54 54 55 55 55 54 54 54 53 53
27 28 29 29 30 30 31 32 33 33 34 35 36 37 37 38 40 41 42 43 45 45 45 45 46 48 49 50 51 51 51 52 53 53 53 53 53 54 55 55 55 53 52
26 25 25 26 27 28 29 30 32 33 34 35 36 37 38 39 39 40 41 42 43 44 45 45 46 47 48 50 50 49 49 50 51 51 52 51 52 53 53 53 52 52 52
23 24 24 25 26 27 28 30 31 33 34 35 36 37 37 38 39 39 40 41 42 44 45 46 46 47 48 49 50 49 49 49 49 50 51 51 51 51 51 51 50 49 49
22 22 22 23 24 26 27 28 30 31 33 34 34 35 36 38 38 39 40 41 44 45 46 47 48 48 48 49 49 49 50 49 49 49 50 50 50 49 49 49 49 48 47
19 20 20 21 22 24 26 27 28 29 30 32 33 34 36 37 38 40 41 42 44 45 45 47 47 47 48 48 49 49 48 48 48 48 49 49 48 48 47 46 47 47 46
18 19 19 21 22 24 25 26 27 29 30 31 32 34 35 37 39 40 41 42 43 44 45 46 47 48 49 48 48 48 48 47 47 49 49 48 47 46 46 46 47 46 46
18 20 21 22 23 24 25 26 27 28 29 30 32 33 35 36 38 40 41 42 43 44 45 47 47 47 48 48 48 48 47 48 47 47 47 46 44 44 44 45 45 45 45
20 21 22 23 24 24 25 26 28 29 30 31 32 34 36 38 40 42 43 43 44 45 45 46 47 47 47 47 47 47 47 47 46 44 44 43 43 43 42 41 43 43 43
Wind_Direction
257 257 258 259 260 262 263 264 265 266 267 267 268 268 269 269 270 271 272 273 273 273 274 275 276 277 279 280 280 281 282 283 284 285 287 288 290 292 294 295 296 297 297
256 256 257 259 260 261 262 264 265 264 265 266 266 267 268 268 269 270 270 272 273 273 274 275 276 277 278 279 280 281 282 283 284 285 287 288 289 290 292 292 294 296 297
256 256 257 258 259 260 260 261 262 263 263 264 265 266 267 267 269 269 270 271 272 273 274 275 277 278 278 279 279 280 282 282 284 285 287 288 288 289 291 291 293 294 295
255 256 257 258 259 259 259 261 260 262 262 263 263 265 266 267 268 269 270 270 271 272 273 275 276 277 278 278 279 280 281 282 283 284 285 287 288 289 289 290 291 293 293
256 256 257 258 259 258 258 259 260 261 261 262 262 264 266 267 267 268 268 268 270 271 273 275 276 276 277 278 279 279 280 281 282 283 283 284 286 288 288 289 290 290 291
255 256 257 258 258 258 259 259 261 261 261 263 263 264 265 266 267 268 268 268 269 270 272 274 275 276 276 277 278 279 280 280 280 282 282 283 284 286 287 288 289 289 290
256 256 258 258 258 259 259 259 261 262 263 264 265 265 265 266 267 268 270 270 270 271 272 273 273 274 275 276 277 277 279 279 279 280 281 283 284 285 286 286 286 287 289
257 258 259 260 260 261 260 261 262 263 263 264 265 266 266 265 265 267 269 270 270 270 271 271 272 273 273 274 275 277 278 278 278 279 280 282 282 282 283 284 284 285 287
259 260 261 261 262 262 263 262 262 262 263 263 265 266 265 264 265 266 267 268 269 270 271 272 273 274 272 272 274 275 276 277 278 279 279 280 281 281 281 281 282 283 285
260 261 261 261 262 262 263 262 263 263 263 263 264 264 264 264 264 265 266 268 269 270 272 274 274 273 273 274 273 273 275 276 277 277 278 278 279 280 280 280 281 281 282
262 262 262 261 261 262 263 263 264 263 263 262 262 262 263 264 265 266 267 268 270 271 272 273 274 274 274 274 273 274 275 276 275 276 277 277 278 280 280 280 280 280 280
262 263 263 262 262 263 264 265 265 264 263 262 261 261 262 265 266 267 268 268 270 271 272 273 273 274 275 275 273 274 276 276 276 277 277 278 279 280 279 279 278 279 278
263 264 264 263 263 264 265 265 265 265 264 263 262 262 264 266 266 267 269 269 270 271 273 274 275 275 275 276 275 275 275 276 276 277 276 277 277 278 278 278 278 277 277
264 265 265 265 265 264 264 264 265 265 264 264 264 264 266 267 267 267 268 269 271 272 273 273 273 274 275 275 275 276 275 275 275 276 276 276 277 278 278 277 278 277 277
264 265 265 265 265 264 265 264 264 264 265 264 264 265 267 267 267 268 269 271 272 272 271 273 274 273 273 274 275 276 276 275 274 275 276 277 276 277 277 277 277 277 277
265 265 266 266 265 265 264 263 264 265 265 265 265 266 267 268 267 269 270 272 273 274 274 273 275 274 273 274 276 277 278 276 275 275 276 276 276 276 277 276 276 277 277
266 266 268 265 264 264 264 262 262 264 264 265 267 269 271 270 271 271 272 273 274 275 276 276 277 277 277 276 277 277 277 277 277 276 276 275 275 276 277 277 277 277 277
265 266 267 266 265 266 265 263 263 266 267 269 270 272 273 274 274 274 274 274 275 277 278 278 278 278 278 278 278 278 278 279 279 278 277 276 275 275 276 277 277 278 277
268 267 268 267 268 267 267 266 267 269 270 271 272 274 275 275 276 275 276 277 277 279 280 280 280 280 280 279 278 278 279 279 280 280 278 277 276 277 277 278 278 277 277
267 268 269 270 269 270 270 270 270 272 273 274 274 275 277 277 277 277 278 279 280 280 281 282 282 282 282 281 280 280 280 280 280 280 278 278 278 278 279 279 278 277 276
268 270 272 273 274 274 275 275 275 275 275 276 277 278 278 279 280 279 280 281 282 283 284 285 286 285 284 284 283 282 281 281 281 280 278 278 279 280 279 279 277 276 276
272 272 274 276 276 276 278 278 279 279 279 279 279 279 280 280 280 281 283 284 285 286 286 286 288 287 287 286 284 283 282 281 280 280 279 279 280 280 280 278 276 275 275
275 277 277 278 280 280 280 282 282 283 283 282 282 282 283 283 284 285 286 287 287 287 287 289 289 289 288 287 285 284 283 282 281 280 280 280 279 280 279 278 276 275 275
282 282 282 283 284 285 285 286 286 286 287 286 285 285 284 284 285 286 287 289 289 289 289 289 289 290 289 288 287 285 284 283 283 283 281 280 278 278 279 279 278 276 275
287 286 286 288 288 289 289 289 290 291 290 289 289 288 288 288 289 289 289 290 291 291 290 290 290 291 290 289 287 285 285 284 284 283 282 281 279 278 280 280 279 277 275
290 290 290 290 291 292 292 292 293 293 292 292 292 292 292 292 291 291 291 291 291 292 292 292 292 292 292 290 289 287 286 285 284 283 282 281 280 280 281 279 279 277 275